Tracking 31027 objects as of 19-Jul-2025
HD Live streaming from Space Station
objects crossing your sky now

COSMOS 886 DEB

Track COSMOS 886 DEB now!
10-day predictions


NORAD ID: 9963
Int'l Code: 1976-126BD
Perigee: 535.0 km
Apogee: 1,725.7 km
Inclination: 65.8 °
Period: 107.8 minutes
Semi major axis: 7501 km
RCS: 0.135 m2 (medium)
Launch date: December 27, 1976
Source: Commonwealth of Independent States (former USSR) (CIS)
Launch site: TYURATAM MISSILE AND SPACE COMPLEX (TTMTR)

Note: This is SATELLITE DEBRIS
Your satellite tracking list
COSMOS 1743
Track 1 satellite(s)




NASA's NSSDC Master Catalog

Two Line Element Set (TLE):
1 09963U 76126BD  25199.49071383  .00001221  00000-0  38890-3 0  9997
2 09963  65.7900 227.5483 0793627 226.1820 127.0934 13.36269314309356
Source of the keplerian elements: AFSPC